This demonstration page uses our WeatherBlox Daily Observations layout. Learn more.

Left ArrowRight Arrow

Hourly Observations for November 20, 2020

Temp ( °F °C ) Dew Point ( °F °C ) Humidity (%) Winds ( mph kmh ) Pressure ( in mb ) Visibility ( mi km ) Precip ( " mm )
12:53 am 00:53 Clear 57 13.9 27 -2.8 32 32 VRB 6 9 30.26 1025 10 16 0.00 0.00
1:53 am 01:53 Clear 56 13.3 28 -2.2 34 34 SW 6 9 30.27 1025 10 16 0.00 0.00
2:53 am 02:53 Clear 55 12.8 28 -2.2 35 35 VRB 6 9 30.29 1026 10 16 0.00 0.00
3:53 am 03:53 Clear 53 11.7 28 -2.2 38 38 VRB 6 9 30.30 1026 10 16 0.00 0.00
4:53 am 04:53 Clear 53 11.7 27 -2.8 37 37 SSW 8 13 30.31 1026 10 16 0.00 0.00
5:53 am 05:53 Clear 53 11.7 26 -3.3 35 35 SSW 9 15 30.32 1027 10 16 0.00 0.00
6:53 am 06:53 Clear 52 11.1 26 -3.3 37 37 SW 7 11 30.32 1027 10 16 0.00 0.00
7:53 am 07:53 Sunny 51 10.6 27 -2.8 39 39 SSW 7 11 30.33 1027 10 16 0.00 0.00
8:53 am 08:53 Sunny 54 12.2 28 -2.2 37 37 SSW 10 17 30.36 1028 10 16 0.00 0.00
9:53 am 09:53 Mostly Sunny 58 14.4 31 -0.6 36 36 SW 12 19 30.36 1028 10 16 0.00 0.00
10:53 am 10:53 Cloudy 57 13.9 34 1.1 42 42 SW 10 17 30.37 1028 10 16 0.00 0.00
11:53 am 11:53 Cloudy 60 15.6 37 2.8 42 42 SW 8 13 30.36 1028 10 16 0.00 0.00
12:53 pm 12:53 Cloudy 62 16.7 41 5 46 46 SW 10 17 30.35 1028 10 16 0.00 0.00
1:53 pm 13:53 Cloudy 63 17.2 43 6.1 48 48 WSW 9 15 30.33 1027 10 16 0.00 0.00
2:53 pm 14:53 Cloudy 64 17.8 44 6.7 48 48 SSW 7 11 30.32 1027 10 16 0.00 0.00
3:53 pm 15:53 Cloudy 63 17.2 45 7.2 52 52 SSW 6 9 30.33 1027 10 16 0.00 0.00
4:53 pm 16:53 Cloudy 62 16.7 45 7.2 54 54 SSW 3 6 30.34 1027 10 16 0.00 0.00
5:53 pm 17:53 Cloudy 61 16.1 46 7.8 58 58 SW 5 7 30.36 1028 10 16 0.00 0.00
6:53 pm 18:53 Cloudy 61 16.1 47 8.3 60 60 WSW 5 7 30.37 1028 10 16 0.00 0.00
7:53 pm 19:53 Cloudy 60 15.6 47 8.3 62 62 WSW 3 6 30.37 1028 10 16 0.00 0.00
8:53 pm 20:53 Cloudy 59 15 47 8.3 64 64 W 5 7 30.38 1029 10 16 0.00 0.00
9:53 pm 21:53 Cloudy 59 15 49 9.4 69 69 W 6 9 30.39 1029 10 16 0.00 0.00
10:53 pm 22:53 Cloudy 58 14.4 49 9.4 72 72 WSW 3 6 30.40 1029 10 16 0.00 0.00
11:53 pm 23:53 Cloudy 56 13.3 52 11.1 87 87 W 3 6 30.40 1029 10 16 0.00 0.00

Powered by AerisWeather